Location: Milevsko
(49.4500°N, 14.3670°E)
Time: 02:10:52
(UTC+01:00)

ISS - Pass Details

Date: 26 November 2021
Orbit: 417 x 422 km, 51.6° (Epoch: 06 December)

Event Time Altitude Azimuth Distance (km) Brightness Sun altitude
Rises 17:49:35 0° 260° (W) 2,373 1.9 -15.8°
Reaches altitude 10° 17:51:41 10° 263° (W) 1,509 0.4 -16.1°
Maximum altitude 17:55:04 70° 347° (NNW) 454 -3.7 -16.7°
Enters shadow 17:55:58 44° 56° (ENE) 596 -3.5 -16.8°
